Chicago Midway, IL

5:39 PM CDT on April 24, 2017 (GMT -0500)
Chicago-Midway

Weather History for KMDW - March, 2014

Change the Weather History Date:

Wednesday, March 19, 2014

  Actual Average Record
Temperature  
Mean Temperature 41 °F 40 °F  
Max Temperature 47 °F 48 °F 79 °F (2012)
Min Temperature 35 °F 32 °F 11 °F (1965)
Degree Days  
Heating Degree Days 24 25  
Month to date heating degree days 670 539  
Since 1 July heating degree days 5872 5050  
Cooling Degree Days 0 0  
Month to date cooling degree days 0 0  
Year to date cooling degree days 0 0  
Moisture  
Dew Point 38 °F    
Average Humidity 85    
Maximum Humidity 100    
Minimum Humidity 59    
Precipitation  
Precipitation 0.39 in 0.09 in 2.50 in (1948)
Month to date precipitation 0.90 1.61  
Year to date precipitation 3.39 5.61  
Sea Level Pressure  
Sea Level Pressure 29.74 in    
Wind  
Wind Speed 13 mph (WSW)    
Max Wind Speed 24 mph    
Max Gust Speed 34 mph    
Visibility 7 miles    
Events Rain    
T = Trace of Precipitation, MM = Missing Value Source: NWS Daily Summary

Daily Weather History Graph

Daily Weather History Graph

Search for Another Location

Airport or City:

Trip Planner

Search our weather history database for the weather conditions in past years. The results will help you decide how hot, cold, wet, or windy it might be!

Date:

Astronomy

Mar. 19, 2014 Rise Set
Actual Time 6:55 AM CDT 7:02 PM CDT
Civil Twilight 6:28 AM CDT 7:29 PM CDT
Nautical Twilight 5:55 AM CDT 8:02 PM CDT
Astronomical Twilight 5:22 AM CDT 8:35 PM CDT
Moon 10:23 PM CDT (3/19) 8:18 AM CDT (3/19)
Length of Visible Light 13h 01m
Length of Day
12h 06m
Waning Gibbous, 91% of the Moon is Illuminated
Mar 19
Waning Gibbous
Mar 23
Last Quarter
Mar 30
New
Apr 7
First Quarter
Apr 15
Full

Hourly Weather History & Observations

Time (CDT) Temp. Windchill Dew Point Humidity Pressure Visibility Wind Dir Wind Speed Gust Speed Precip Events Conditions
12:34 AM 46.0 °F 41.0 °F 39.0 °F 76% 29.68 in 10.0 mi South 10.4 mph - N/A   Overcast
12:51 AM 46.0 °F 41.0 °F 39.0 °F 76% 29.68 in 10.0 mi SSE 10.4 mph - N/A   Overcast
1:51 AM 46.0 °F 40.6 °F 39.9 °F 79% 29.66 in 10.0 mi South 11.5 mph - N/A   Overcast
2:33 AM 46.0 °F 41.0 °F 41.0 °F 83% 29.63 in 10.0 mi South 10.4 mph - N/A   Overcast
2:51 AM 46.0 °F 40.2 °F 41.0 °F 83% 29.64 in 10.0 mi South 12.7 mph 19.6 mph N/A   Overcast
3:51 AM 45.0 °F 40.1 °F 42.1 °F 90% 29.62 in 6.0 mi SSW 9.2 mph - 0.00 in Rain Light Rain
4:51 AM 44.1 °F 40.8 °F 42.1 °F 93% 29.60 in 5.0 mi South 5.8 mph - 0.03 in Rain Light Rain
5:21 AM 44.1 °F 40.8 °F 42.1 °F 93% 29.58 in 5.0 mi South 5.8 mph - 0.01 in Rain Light Rain
5:51 AM 44.1 °F 39.5 °F 43.0 °F 96% 29.59 in 5.0 mi SSE 8.1 mph - 0.01 in Rain Light Rain
6:34 AM 45.0 °F 39.7 °F 43.0 °F 93% 29.58 in 4.0 mi South 10.4 mph - 0.07 in Rain Rain
6:51 AM 44.1 °F 39.5 °F 43.0 °F 96% 29.59 in 4.0 mi SSW 8.1 mph - 0.11 in Rain Light Rain
7:15 AM 45.0 °F 39.7 °F 43.0 °F 93% 29.58 in 5.0 mi SSW 10.4 mph - 0.04 in Rain Light Rain
7:51 AM 45.0 °F 40.6 °F 43.0 °F 93% 29.59 in 3.0 mi SSW 8.1 mph 16.1 mph 0.10 in Rain Light Rain
8:51 AM 45.0 °F 40.1 °F 44.1 °F 97% 29.59 in 7.0 mi SW 9.2 mph - 0.07 in Rain Light Rain
9:51 AM 45.0 °F 40.6 °F 45.0 °F 100% 29.61 in 5.0 mi West 8.1 mph - 0.05 in Rain Light Rain
10:51 AM 45.0 °F 39.7 °F 45.0 °F 100% 29.63 in 5.0 mi WSW 10.4 mph - 0.01 in Rain Light Rain
11:51 AM 44.1 °F 37.7 °F 44.1 °F 100% 29.66 in 5.0 mi West 12.7 mph - 0.01 in   Overcast
12:51 PM 41.0 °F 33.5 °F 41.0 °F 100% 29.70 in 7.0 mi WNW 13.8 mph - N/A   Overcast
1:09 PM 41.0 °F 33.1 °F 41.0 °F 100% 29.70 in 7.0 mi WNW 15.0 mph - N/A   Overcast
1:51 PM 39.9 °F 32.5 °F 39.0 °F 97% 29.74 in 7.0 mi WNW 12.7 mph 23.0 mph N/A   Overcast
2:13 PM 41.0 °F 32.5 °F 36.0 °F 82% 29.73 in 7.0 mi West 17.3 mph - N/A   Overcast
2:51 PM 39.9 °F 30.5 °F 35.1 °F 83% 29.78 in 9.0 mi WNW 19.6 mph 31.1 mph N/A   Overcast
3:51 PM 39.9 °F 31.8 °F 35.1 °F 83% 29.81 in 9.0 mi West 15.0 mph 20.7 mph N/A   Overcast
4:51 PM 39.9 °F 31.8 °F 34.0 °F 79% 29.85 in 9.0 mi West 15.0 mph 26.5 mph N/A   Overcast
5:51 PM 39.0 °F 30.6 °F 34.0 °F 82% 29.88 in 6.0 mi West 15.0 mph 25.3 mph N/A   Haze
6:06 PM 37.9 °F 28.2 °F 34.0 °F 86% 29.87 in 5.0 mi West 18.4 mph - N/A   Overcast
6:51 PM 37.0 °F 27.4 °F 32.0 °F 82% 29.92 in 5.0 mi West 17.3 mph 27.6 mph N/A   Haze
7:51 PM 37.0 °F 27.4 °F 30.0 °F 76% 29.94 in 7.0 mi West 17.3 mph 26.5 mph N/A   Overcast
8:51 PM 36.0 °F 26.0 °F 28.0 °F 73% 29.96 in 9.0 mi West 17.3 mph - N/A   Overcast
9:51 PM 36.0 °F 26.7 °F 27.0 °F 70% 29.98 in 10.0 mi West 15.0 mph 21.9 mph N/A   Overcast
10:51 PM 35.1 °F 25.5 °F 26.1 °F 70% 30.00 in 10.0 mi West 15.0 mph - N/A   Overcast
11:21 PM 35.1 °F 25.9 °F 25.0 °F 67% 29.99 in 10.0 mi West 13.8 mph 20.7 mph N/A   Overcast
11:51 PM 35.1 °F 24.8 °F 25.0 °F 67% 30.01 in 10.0 mi West 17.3 mph 25.3 mph N/A   Overcast